BOX170 EDDP-EDDF

Flight info

Callsign BOX170
Flight time 0h 34m
Altitude 22000
Route ORTAG5E ORTAG T177 ODIPI/N0406F210 T157 KERAX KERAX5A
Aircraft B77L/H-SDE1E2E3FGHIJ2J3J4J5M1RWXY/LB1D1

Departure

Time 2026-05-04 21:11
Airport Leipzig/Halle Airport (EDDP)

Arrival

Time 2026-05-04 21:46
Airport Frankfurt Main Airport (EDDF)
Time Latitude Longitude Altitude Speed Heading
2026-05-04 20:57 51.40894 12.23870 466 ft 0 kts 85°
2026-05-04 21:02 51.40894 12.23865 471 ft 3 kts 85°
2026-05-04 21:03 51.40889 12.23823 470 ft 4 kts 69°
2026-05-04 21:03 51.40876 12.23787 468 ft 4 kts 43°
2026-05-04 21:03 51.40854 12.23767 470 ft 4 kts
2026-05-04 21:03 51.40844 12.23767 470 ft 1 kts 356°
2026-05-04 21:06 51.40858 12.23766 470 ft 10 kts 355°
2026-05-04 21:06 51.40943 12.23755 472 ft 13 kts 355°
2026-05-04 21:06 51.41043 12.23696 469 ft 18 kts 294°
2026-05-04 21:07 51.41043 12.23501 470 ft 18 kts 266°
2026-05-04 21:07 51.41033 12.23283 472 ft 21 kts 265°
2026-05-04 21:07 51.41022 12.23045 471 ft 25 kts 266°
2026-05-04 21:07 51.41007 12.22733 467 ft 24 kts 265°
2026-05-04 21:08 51.40994 12.22467 462 ft 24 kts 265°
2026-05-04 21:08 51.41064 12.22250 459 ft 24 kts 290°
2026-05-04 21:08 51.41061 12.21984 461 ft 24 kts 265°
2026-05-04 21:08 51.41048 12.21718 463 ft 24 kts 265°
2026-05-04 21:09 51.41035 12.21443 457 ft 26 kts 265°
2026-05-04 21:09 51.41021 12.21155 452 ft 27 kts 265°
2026-05-04 21:09 51.41006 12.20843 442 ft 29 kts 265°
2026-05-04 21:09 51.41003 12.20689 443 ft 9 kts 291°
2026-05-04 21:10 51.41033 12.20670 443 ft 0 kts
2026-05-04 21:10 51.41045 12.20673 430 ft 10 kts 11°
2026-05-04 21:10 51.41133 12.20772 433 ft 17 kts 46°
2026-05-04 21:11 51.41184 12.20954 449 ft 27 kts 82°
2026-05-04 21:11 51.41222 12.21787 459 ft 129 kts 86°
2026-05-04 21:11 51.41303 12.23553 558 ft 179 kts 86°
2026-05-04 21:11 51.41395 12.25575 1257 ft 196 kts 84°
2026-05-04 21:12 51.41510 12.27878 2366 ft 219 kts 85°
2026-05-04 21:12 51.41638 12.30424 3148 ft 242 kts 84°
2026-05-04 21:12 51.41791 12.33137 4038 ft 253 kts 84°
2026-05-04 21:12 51.41953 12.35997 5083 ft 263 kts 84°
2026-05-04 21:13 51.42417 12.38830 5952 ft 273 kts 60°
2026-05-04 21:13 51.43659 12.41148 7014 ft 279 kts 34°
2026-05-04 21:13 51.45446 12.42328 8064 ft 283 kts
2026-05-04 21:13 51.47395 12.42198 9045 ft 286 kts 345°
2026-05-04 21:14 51.49320 12.41258 9872 ft 291 kts 332°
2026-05-04 21:14 51.50879 12.39186 10625 ft 302 kts 302°
2026-05-04 21:14 51.51670 12.35942 10957 ft 328 kts 274°
2026-05-04 21:14 51.51405 12.32176 11286 ft 354 kts 250°
2026-05-04 21:15 51.50400 12.28525 12144 ft 362 kts 243°
2026-05-04 21:15 51.49240 12.24930 13281 ft 365 kts 241°
2026-05-04 21:15 51.48025 12.21317 14365 ft 370 kts 241°
2026-05-04 21:15 51.46798 12.17700 15366 ft 375 kts 241°
2026-05-04 21:16 51.45542 12.13990 16316 ft 381 kts 241°
2026-05-04 21:16 51.44230 12.10252 17247 ft 387 kts 239°
2026-05-04 21:16 51.42856 12.06539 18158 ft 392 kts 239°
2026-05-04 21:16 51.41465 12.02725 19007 ft 398 kts 240°
2026-05-04 21:17 51.40091 11.98839 19809 ft 403 kts 240°
2026-05-04 21:17 51.38734 11.94889 20625 ft 408 kts 241°
2026-05-04 21:17 51.37378 11.90856 21417 ft 412 kts 242°
2026-05-04 21:17 51.36048 11.86847 21966 ft 414 kts 242°
2026-05-04 21:18 51.34680 11.82698 21963 ft 424 kts 242°
2026-05-04 21:18 51.33301 11.78507 21986 ft 426 kts 242°
2026-05-04 21:18 51.31920 11.74311 21965 ft 426 kts 242°
2026-05-04 21:18 51.30538 11.70121 21968 ft 425 kts 242°
2026-05-04 21:19 51.29155 11.65936 21981 ft 425 kts 242°
2026-05-04 21:19 51.27773 11.61764 21964 ft 425 kts 242°
2026-05-04 21:19 51.26403 11.57635 21965 ft 425 kts 242°
2026-05-04 21:19 51.25011 11.53446 21966 ft 426 kts 242°
2026-05-04 21:20 51.23621 11.49274 21981 ft 426 kts 242°
2026-05-04 21:20 51.22226 11.45096 21984 ft 426 kts 242°
2026-05-04 21:20 51.20830 11.40920 21982 ft 426 kts 242°
2026-05-04 21:20 51.19432 11.36748 21987 ft 426 kts 242°
2026-05-04 21:21 51.18045 11.32616 21988 ft 427 kts 241°
2026-05-04 21:21 51.16637 11.28429 21996 ft 427 kts 241°
2026-05-04 21:21 51.15231 11.24253 21991 ft 427 kts 241°
2026-05-04 21:21 51.13828 11.20088 21983 ft 427 kts 241°
2026-05-04 21:22 51.12435 11.15962 21991 ft 426 kts 241°
2026-05-04 21:22 51.11033 11.11813 21990 ft 426 kts 241°
2026-05-04 21:22 51.09623 11.07654 21988 ft 426 kts 241°
2026-05-04 21:22 51.08214 11.03504 21992 ft 426 kts 241°
2026-05-04 21:23 51.06802 10.99351 21997 ft 426 kts 241°
2026-05-04 21:23 51.05392 10.95208 21996 ft 426 kts 241°
2026-05-04 21:23 51.03977 10.91059 21995 ft 426 kts 241°
2026-05-04 21:23 51.02564 10.86922 21988 ft 426 kts 241°
2026-05-04 21:24 51.01148 10.82786 22000 ft 426 kts 241°
2026-05-04 21:24 50.99743 10.78682 21990 ft 427 kts 241°
2026-05-04 21:24 50.98322 10.74543 21988 ft 427 kts 241°
2026-05-04 21:24 50.96899 10.70411 21986 ft 427 kts 240°
2026-05-04 21:25 50.95472 10.66271 21995 ft 427 kts 240°
2026-05-04 21:25 50.94050 10.62150 21994 ft 426 kts 240°
2026-05-04 21:25 50.92626 10.58019 21989 ft 426 kts 240°
2026-05-04 21:25 50.91198 10.53892 21986 ft 426 kts 240°
2026-05-04 21:26 50.89773 10.49784 21989 ft 425 kts 240°
2026-05-04 21:26 50.88368 10.45737 21995 ft 425 kts 240°
2026-05-04 21:26 50.86940 10.41639 21985 ft 424 kts 240°
2026-05-04 21:26 50.85504 10.37534 21985 ft 424 kts 240°
2026-05-04 21:27 50.84081 10.33456 21992 ft 424 kts 240°
2026-05-04 21:27 50.82659 10.29360 21993 ft 424 kts 240°
2026-05-04 21:27 50.81228 10.25254 21996 ft 425 kts 240°
2026-05-04 21:27 50.79794 10.21166 21989 ft 425 kts 240°
2026-05-04 21:28 50.78398 10.17041 21992 ft 426 kts 242°
2026-05-04 21:28 50.77085 10.12907 21992 ft 426 kts 243°
2026-05-04 21:28 50.75777 10.08708 21989 ft 423 kts 243°
2026-05-04 21:28 50.74492 10.04582 21762 ft 415 kts 243°
2026-05-04 21:29 50.73215 10.00518 21289 ft 410 kts 243°
2026-05-04 21:29 50.71948 9.96518 20727 ft 404 kts 242°
2026-05-04 21:29 50.70704 9.92616 20122 ft 400 kts 242°
2026-05-04 21:29 50.69455 9.88712 19527 ft 396 kts 242°
2026-05-04 21:30 50.68219 9.84851 18933 ft 392 kts 242°
2026-05-04 21:30 50.66986 9.81017 18336 ft 390 kts 242°
2026-05-04 21:30 50.65760 9.77205 17747 ft 393 kts 242°
2026-05-04 21:30 50.64454 9.73189 17247 ft 424 kts 240°
2026-05-04 21:31 50.60639 9.66607 16562 ft 380 kts 214°
2026-05-04 21:31 50.58427 9.64715 15553 ft 362 kts 203°
2026-05-04 21:31 50.56077 9.63377 14737 ft 363 kts 201°
2026-05-04 21:32 50.53565 9.61899 14243 ft 401 kts 202°
2026-05-04 21:32 50.51023 9.60347 13720 ft 386 kts 203°
2026-05-04 21:32 50.49428 9.59171 13290 ft 378 kts 209°
2026-05-04 21:32 50.46646 9.56074 11861 ft 372 kts 221°
2026-05-04 21:33 50.44830 9.53237 11132 ft 372 kts 229°
2026-05-04 21:33 50.43200 9.50127 10546 ft 366 kts 231°
2026-05-04 21:33 50.41609 9.47053 10069 ft 359 kts 231°
2026-05-04 21:33 50.40069 9.44087 9931 ft 342 kts 231°
2026-05-04 21:34 50.38597 9.41264 9823 ft 326 kts 230°
2026-05-04 21:34 50.37186 9.38568 9722 ft 312 kts 230°
2026-05-04 21:34 50.35835 9.35993 9629 ft 298 kts 230°
2026-05-04 21:34 50.34560 9.33571 9540 ft 285 kts 230°
2026-05-04 21:35 50.33321 9.31220 9398 ft 274 kts 230°
2026-05-04 21:35 50.32121 9.28944 9171 ft 267 kts 230°
2026-05-04 21:35 50.30947 9.26721 8828 ft 264 kts 230°
2026-05-04 21:35 50.29783 9.24519 8678 ft 259 kts 230°
2026-05-04 21:36 50.29023 9.23084 8629 ft 259 kts 230°
2026-05-04 21:36 50.27868 9.20904 8461 ft 261 kts 230°
2026-05-04 21:36 50.26707 9.18713 8176 ft 262 kts 230°
2026-05-04 21:36 50.25545 9.16520 7827 ft 262 kts 230°
2026-05-04 21:37 50.24383 9.14334 7435 ft 261 kts 230°
2026-05-04 21:37 50.23220 9.12149 7042 ft 260 kts 230°
2026-05-04 21:37 50.22065 9.09975 6635 ft 260 kts 231°
2026-05-04 21:37 50.20926 9.07833 6269 ft 260 kts 231°
2026-05-04 21:38 50.19762 9.05648 6075 ft 262 kts 231°
2026-05-04 21:38 50.18602 9.03471 6079 ft 260 kts 231°
2026-05-04 21:38 50.17466 9.01342 6069 ft 250 kts 231°
2026-05-04 21:38 50.16392 8.99333 6036 ft 234 kts 231°
2026-05-04 21:39 50.15387 8.97454 5998 ft 217 kts 231°
2026-05-04 21:39 50.14600 8.95465 5977 ft 220 kts 249°
2026-05-04 21:39 50.14092 8.93221 5780 ft 224 kts 250°
2026-05-04 21:39 50.13564 8.90993 5525 ft 219 kts 250°
2026-05-04 21:40 50.13037 8.88786 5250 ft 214 kts 250°
2026-05-04 21:40 50.12525 8.86644 5027 ft 206 kts 250°
2026-05-04 21:40 50.12023 8.84535 4749 ft 210 kts 250°
2026-05-04 21:40 50.11510 8.82382 4465 ft 214 kts 250°
2026-05-04 21:41 50.10994 8.80209 4160 ft 213 kts 251°
2026-05-04 21:41 50.10486 8.78083 3835 ft 204 kts 251°
2026-05-04 21:41 50.10007 8.76095 3612 ft 189 kts 251°
2026-05-04 21:41 50.09558 8.74207 3323 ft 186 kts 251°
2026-05-04 21:42 50.09115 8.72349 3049 ft 179 kts 251°
2026-05-04 21:42 50.08700 8.70614 2811 ft 164 kts 251°
2026-05-04 21:42 50.08317 8.69004 2571 ft 154 kts 250°
2026-05-04 21:42 50.07962 8.67510 2383 ft 143 kts 249°
2026-05-04 21:43 50.07629 8.66120 2196 ft 137 kts 248°
2026-05-04 21:43 50.07291 8.64706 1996 ft 141 kts 248°
2026-05-04 21:43 50.06946 8.63262 1795 ft 143 kts 248°
2026-05-04 21:43 50.06600 8.61808 1592 ft 143 kts 249°
2026-05-04 21:44 50.06252 8.60359 1384 ft 143 kts 249°
2026-05-04 21:44 50.05907 8.58916 1161 ft 142 kts 250°
2026-05-04 21:44 50.05573 8.57486 930 ft 139 kts 250°
2026-05-04 21:44 50.05232 8.56072 750 ft 140 kts 251°
2026-05-04 21:45 50.04889 8.54652 567 ft 140 kts 250°
2026-05-04 21:45 50.04551 8.53236 393 ft 140 kts 250°
2026-05-04 21:45 50.04236 8.51908 351 ft 123 kts 250°
2026-05-04 21:45 50.04000 8.50935 331 ft 77 kts 250°
2026-05-04 21:46 50.03835 8.50390 325 ft 40 kts 226°
2026-05-04 21:46 50.03703 8.50207 322 ft 21 kts 214°
2026-05-04 21:46 50.03633 8.50294 329 ft 16 kts 83°
2026-05-04 21:46 50.03669 8.50457 332 ft 16 kts 70°
2026-05-04 21:47 50.03708 8.50622 333 ft 17 kts 69°
2026-05-04 21:47 50.03749 8.50790 336 ft 17 kts 69°
2026-05-04 21:47 50.03753 8.50967 341 ft 19 kts 107°
2026-05-04 21:47 50.03696 8.51152 350 ft 19 kts 117°
2026-05-04 21:48 50.03636 8.51335 361 ft 19 kts 116°
2026-05-04 21:48 50.03578 8.51519 362 ft 19 kts 116°
2026-05-04 21:48 50.03520 8.51703 364 ft 19 kts 112°
2026-05-04 21:48 50.03520 8.51912 356 ft 21 kts 83°
2026-05-04 21:49 50.03538 8.52158 350 ft 24 kts 83°
2026-05-04 21:49 50.03574 8.52402 345 ft 23 kts 71°
2026-05-04 21:49 50.03603 8.52650 353 ft 23 kts 76°
2026-05-04 21:49 50.03607 8.52864 356 ft 20 kts 128°
2026-05-04 21:50 50.03606 8.53062 352 ft 16 kts 71°
2026-05-04 21:50 50.03636 8.53188 348 ft 12 kts 69°
2026-05-04 21:50 50.03693 8.53254 346 ft 12 kts 353°
2026-05-04 21:50 50.03734 8.53235 348 ft 1 kts 340°
2026-05-04 21:51 50.03746 8.53228 353 ft 2 kts 341°
2026-05-04 21:51 50.03750 8.53226 347 ft 0 kts 341°